Mount Holly, NJ

9:04 AM EST on December 09, 2019 (GMT -0500)
South Jersey Regional

Weather History for KVAY - September, 2019

Change the Weather History Date:

Wednesday, September 11, 2019

  Actual Average (KPNE) Record (KPNE)
Temperature  
Mean Temperature 77 °F -  
Max Temperature 90 °F 77 °F 93 °F (2013)
Min Temperature 64 °F 59 °F 50 °F (2012)
Cooling Degree Days 12    
Growing Degree Days 27 (Base 50)    
Moisture  
Dew Point 68 °F    
Average Humidity 76    
Maximum Humidity 97    
Minimum Humidity 52    
Precipitation  
Precipitation 0.00 in - - ()
Sea Level Pressure  
Sea Level Pressure 30.15 in    
Wind  
Wind Speed 3 mph (SW)    
Max Wind Speed 10 mph    
Max Gust Speed -    
Visibility 10 miles    
Events      
Averages and records for this station are not official NWS values.
T = Trace of Precipitation, MM = Missing Value Source: NWS Daily Summary

Daily Weather History Graph

Daily Weather History Graph

Search for Another Location

Airport or City:

Astronomy

Sep. 11, 2019 Rise Set
Actual Time 6:36 AM EDT 7:15 PM EDT
Civil Twilight 6:09 AM EDT 7:42 PM EDT
Nautical Twilight 5:36 AM EDT 8:14 PM EDT
Astronomical Twilight 5:03 AM EDT 8:47 PM EDT
Moon 6:25 PM EDT (9/11) 3:56 AM EDT (9/11)
Length of Visible Light 13h 33m
Length of Day
12h 38m
Waxing Gibbous, 94% of the Moon is Illuminated
Sep 11
Waxing Gibbous
Sep 14
Full
Sep 21
Last Quarter
Sep 28
New
Oct 5
First Quarter

Hourly Weather History & Observations

Time (EDT) Temp. Heat Index Dew Point Humidity Pressure Visibility Wind Dir Wind Speed Gust Speed Precip Events Conditions
12:54 AM 66.9 °F - 64.9 °F 93% 30.27 in 10.0 mi Variable 3.5 mph - N/A   Clear
1:54 AM 66.9 °F - 64.9 °F 93% 30.27 in 10.0 mi South 3.5 mph - N/A   Clear
2:54 AM 66.9 °F - 64.0 °F 90% 30.25 in 10.0 mi Calm Calm - N/A   Clear
3:54 AM 66.0 °F - 64.0 °F 93% 30.25 in 10.0 mi Calm Calm - N/A   Clear
4:54 AM 64.9 °F - 63.0 °F 93% 30.24 in 9.0 mi Calm Calm - N/A   Clear
5:54 AM 64.9 °F - 63.0 °F 93% 30.24 in 9.0 mi Calm Calm - N/A   Clear
6:54 AM 64.9 °F - 64.0 °F 97% 30.24 in 8.0 mi Calm Calm - N/A   Clear
7:54 AM 68.0 °F - 66.0 °F 93% 30.23 in 10.0 mi SSW 3.5 mph - N/A   Clear
8:54 AM 73.0 °F - 66.9 °F 81% 30.23 in 10.0 mi SW 8.1 mph - N/A   Partly Cloudy
9:54 AM 77.0 °F - 66.9 °F 71% 30.22 in 10.0 mi WSW 6.9 mph - N/A   Clear
10:54 AM 80.1 °F 82.7 °F 68.0 °F 67% 30.19 in 10.0 mi SW 8.1 mph - N/A   Partly Cloudy
11:54 AM 82.9 °F 86.5 °F 69.1 °F 63% 30.17 in 10.0 mi Variable 4.6 mph - N/A   Clear
12:54 PM 84.0 °F 87.8 °F 69.1 °F 61% 30.14 in 10.0 mi West 10.4 mph - N/A   Clear
1:54 PM 86.0 °F 90.7 °F 70.0 °F 59% 30.11 in 10.0 mi SW 6.9 mph - N/A   Clear
2:54 PM 88.0 °F 92.9 °F 70.0 °F 55% 30.08 in 10.0 mi West 9.2 mph - N/A   Clear
3:54 PM 89.1 °F 94.1 °F 70.0 °F 53% 30.06 in 10.0 mi Variable 4.6 mph - N/A   Clear
4:54 PM 90.0 °F 95.4 °F 70.0 °F 52% 30.04 in 10.0 mi Variable 3.5 mph - N/A   Clear
5:54 PM 89.1 °F 94.1 °F 70.0 °F 53% 30.04 in 10.0 mi Variable 4.6 mph - N/A   Clear
6:54 PM 82.9 °F 87.5 °F 71.1 °F 67% 30.03 in 10.0 mi Variable 3.5 mph - N/A   Clear
7:54 PM 80.1 °F 83.6 °F 71.1 °F 74% 30.05 in 10.0 mi Calm Calm - N/A   Clear
8:54 PM 79.0 °F - 72.0 °F 79% 30.06 in 10.0 mi Calm Calm - N/A   Clear
9:54 PM 78.1 °F - 71.1 °F 79% 30.06 in 10.0 mi Calm Calm - N/A   Scattered Clouds
10:54 PM 75.9 °F - 71.1 °F 85% 30.06 in 10.0 mi Calm Calm - N/A   Clear
11:54 PM 75.0 °F - 71.1 °F 87% 30.04 in 10.0 mi Calm Calm - N/A   Clear